Location: Palmerston North
(40.3500°S, 175.6170°E)
Time: 16:36:08
(UTC+12:00)

Lacrosse 5 - Pass Details

Date: 24 January 2019
Orbit: 712 x 726 km, 57.0° (Epoch: 16 April)

Event Time Altitude Azimuth Distance (km) Brightness Sun altitude
Rises 21:08:52 0° 224° (SW) 3,161 7.0 -5.1°
Reaches altitude 10° 21:11:17 10° 221° (SW) 2,233 5.9 -5.5°
Maximum altitude 21:16:26 75° 135° (SE) 753 2.0 -6.3°
Drops below altitude 10° 21:21:31 10° 49° (NE) 2,202 3.7 -7.1°
Enters shadow 21:21:50 - 49° (NE) 2,327 3.8 -7.2°
